Flag for Belgium Weather past 2 weeks in Ghent, Belgium

Now
60 °F

Cool.


Feels Like: 60 °F
Forecast: 52 / 61 °F
Wind: 6 mph from North

Location: Munte

Current Time: Sep 21, 2014 at 6:39:19 PM

Latest Report: Sep 21, 2014 at 6:00 PM


Visibility: 17 mi

Pressure: 30.16 "Hg

Humidity: 71%

Dew point: 51 °F

Location of GhentLocation

Historic Weather in Ghent — Graph

°F

Ghent temperature yesterday

Maximum temperature yesterday: 71 °F (at 3:00 PM)
Minimum temperature yesterday: 58 °F (at 4:00 AM)
Average temperature yesterday: 63 °F

Past Weeks' High & Low Weather Summary

 TemperatureHumidityPressure
High79 °F (Sep 19, 5:00 PM)100% (Sep 7, 3:00 AM)30.29 "Hg (Sep 7, 3:00 AM)
Low46 °F (Sep 11, 8:00 AM)52% (Sep 17, 4:00 PM)29.79 "Hg (Sep 18, 4:00 PM)
Average61 °F84%30.05 "Hg
* Reported Sep 6 5:00 PM — Sep 21 5:00 PM, Ghent, Weather by CustomWeather, © 2014

Note: Actual official high and low records may vary slightly from our data, if they occured in-between our weather recording intervals... More about our weather records

Advertising

Ghent weather history for previous 24 hours

 ConditionsComfort  
Time TempWeatherWind HumidityBarometerVisibility
5:00 PM
Sep 21
63 °FMild.6 mph60%30.15 "Hg14 mi
4:00 PM64 °FMild.5 mph64%30.14 "Hg19 mi
3:00 PM62 °FCool.7 mph64%30.14 "Hg25 mi
2:00 PM64 °FMild.6 mph63%30.14 "Hg17 mi
1:00 PM63 °FMild.7 mph69%30.13 "Hg14 mi
12:00 PM61 °FCool.5 mph80%30.12 "Hg14 mi
11:00 AM60 °FCool.5 mph89%30.11 "Hg9 mi
10:00 AM60 °FCool.5 mph93%30.09 "Hg9 mi
9:00 AM60 °FDrizzle. Cloudy.5 mph97%30.06 "Hg5 mi
8:00 AM60 °FRain. Cloudy.2 mph100%30.04 "Hg2 mi
7:00 AM60 °FCool.N/A100%30.03 "Hg4 mi
6:00 AM61 °FDrizzle. Overcast.2 mph99%30.02 "Hg1 mi
5:00 AM61 °FLight rain. Overcast.N/A99%30.02 "Hg1 mi
4:00 AM61 °FFog.N/A99%30.03 "Hg2 mi
3:00 AM61 °FFog.N/A99%30.03 "Hg1 mi
2:00 AM61 °FRain. Overcast.N/A97%30.03 "Hg1 mi
1:00 AM61 °FFog.N/A97%30.03 "Hg2 mi
12:00 AM63 °FMild.2 mph91%30.03 "Hg4 mi
11:00 PM
Sep 20
63 °FMild.N/A91%30.03 "Hg3 mi
10:00 PM63 °FMild.N/A92%30.02 "Hg3 mi
9:00 PM63 °FFog.2 mph92%30.01 "Hg2 mi
8:00 PM64 °FFog.2 mph92%29.99 "Hg2 mi
7:00 PM65 °FFog.3 mph90%29.96 "Hg2 mi
Weather by CustomWeather, © 2014

See weather overviewHow to use our weather pages